Wind_Speed
63 63 66 65 64 64 62 61 60 57 55 54 54 52 48 50 50 48 46 38 36 33 33 35 33 31 30 29 28 27 26 27 29 30 30 28 26 25 24 22 23 20 17
69 67 64 64 64 63 61 58 56 53 51 51 49 46 45 46 45 42 44 37 35 32 33 35 33 33 30 29 28 27 27 29 31 33 30 29 27 24 23 21 21 15 17
76 74 70 68 66 65 62 57 52 51 48 48 46 45 46 44 43 44 40 39 35 32 34 35 34 32 31 29 28 28 29 30 32 34 30 27 28 25 25 20 19 17 18
80 80 77 72 71 67 62 61 56 53 51 46 41 42 43 41 42 38 36 39 35 35 36 35 35 30 31 29 28 29 30 31 32 33 29 26 27 25 24 20 20 20 23
63 80 83 80 73 69 64 63 59 55 51 45 44 43 41 39 38 37 40 40 36 36 36 35 33 31 31 29 28 30 31 31 32 33 28 27 28 26 23 20 19 16 15
56 54 72 85 80 70 67 63 61 57 53 50 47 44 40 38 35 39 39 36 36 37 35 32 31 30 30 28 29 30 30 30 32 29 28 28 28 26 22 18 18 13 14
48 55 57 68 82 74 67 63 60 57 56 52 48 44 39 36 36 37 35 34 35 35 31 29 30 29 28 27 28 29 28 30 29 28 29 29 27 24 20 20 19 16 18
42 48 50 57 73 75 70 64 61 59 58 53 52 44 39 36 35 35 34 35 34 31 28 28 28 27 26 26 28 28 28 28 27 29 30 27 22 19 21 21 20 18 18
39 39 40 45 54 68 68 64 61 59 58 56 50 44 38 35 35 34 34 34 29 27 25 26 27 25 25 27 27 28 27 27 28 28 27 21 21 20 23 23 22 19 20
32 35 41 43 46 61 64 61 58 57 57 53 49 42 37 36 34 34 33 29 27 25 24 26 25 26 27 26 28 27 26 27 26 21 16 12 17 22 24 22 23 22 20
23 48 32 37 48 57 59 58 58 58 53 50 44 39 37 35 35 31 28 28 25 23 25 25 25 25 24 27 27 27 29 27 15 14 12 16 16 26 21 21 22 22 19
30 28 32 22 49 54 57 58 56 54 50 45 38 37 37 35 29 30 28 24 22 23 24 23 22 22 25 25 26 29 20 13 13 14 15 17 21 23 20 19 18 15 19
27 31 35 46 51 52 54 55 52 49 47 39 37 36 34 30 29 28 25 22 23 23 20 20 21 22 22 23 24 15 12 11 12 13 14 16 16 24 21 18 17 18 18
33 27 44 44 44 45 46 48 48 47 42 38 36 35 33 32 31 26 23 23 23 20 19 20 21 21 21 19 15 11 10 12 11 11 12 13 15 20 17 17 16 15 17
34 24 44 41 42 39 43 44 42 39 35 34 37 35 39 33 26 24 22 21 21 20 19 18 18 18 16 12 11 11 11 10 10 10 11 11 11 13 15 16 16 14 14
33 34 38 42 38 37 37 37 37 37 39 44 39 32 26 23 22 21 21 22 20 19 18 17 14 16 12 10 10 11 10 9 10 9 8 11 11 12 13 14 15 12 13
33 34 37 37 37 36 38 38 37 36 34 32 29 23 21 21 21 21 19 19 19 18 17 14 14 14 10 11 12 12 10 9 11 11 10 12 10 10 11 13 14 14 14
32 34 34 37 35 41 39 38 32 27 21 24 27 24 21 20 20 20 20 19 18 16 15 14 13 11 11 12 15 14 11 10 11 12 11 11 10 10 11 12 12 13 14
31 32 32 32 30 32 36 36 32 29 27 25 23 22 20 19 19 18 18 17 16 15 15 14 12 12 12 13 16 13 12 12 10 9 9 10 11 11 12 12 11 13 14
30 25 21 29 26 28 31 28 24 22 22 21 19 18 17 15 15 16 16 16 16 15 14 13 13 13 13 14 15 16 13 10 10 10 9 10 11 12 12 13 14 15 14
29 23 22 24 30 27 24 23 24 22 20 18 17 16 16 15 15 15 14 15 14 14 14 14 13 14 14 15 16 17 16 13 11 10 10 10 11 12 12 12 12 12 10
29 25 33 33 31 26 25 24 21 19 18 16 15 16 16 16 15 13 12 13 12 13 13 13 13 14 15 15 16 16 15 16 15 12 11 10 10 10 10 11 12 10 9
33 31 30 27 26 25 23 21 20 19 18 15 15 14 14 15 14 13 13 12 12 12 11 11 13 14 15 14 14 13 11 12 11 11 10 10 10 9 10 12 14 15 14
30 27 26 24 22 21 20 20 19 20 18 18 23 21 12 14 15 13 12 12 11 10 9 9 12 13 14 13 12 11 11 10 11 10 11 11 10 10 10 10 11 14 17
28 27 25 22 19 18 18 18 19 19 17 14 13 13 14 14 14 14 14 12 10 8 8 10 12 14 13 13 12 12 11 10 10 10 10 10 8 5 8 8 10 13 14
26 24 21 19 18 19 20 21 21 21 18 17 16 16 15 14 14 14 13 13 13 11 9 11 13 13 12 11 9 9 10 9 8 5 7 9 11 12 15 16 18 17 18
Wind_Direction
245 241 242 242 244 244 244 244 244 245 244 247 250 254 256 261 263 272 275 270 273 277 278 280 279 279 280 284 276 284 286 292 295 299 299 295 299 302 295 296 290 278 260
248 246 244 243 242 244 244 242 241 242 242 244 246 250 252 256 261 269 269 266 269 273 275 277 277 275 280 279 276 284 287 289 292 296 298 290 296 296 294 288 285 263 247
243 243 242 243 243 243 243 244 244 244 243 242 243 249 255 260 263 264 265 261 265 270 273 273 271 275 278 276 278 285 288 287 289 292 295 287 291 290 292 279 271 258 253
241 239 238 237 239 241 242 241 240 240 242 243 246 249 255 256 260 266 259 260 261 263 269 269 268 275 278 276 280 287 289 287 287 288 291 285 290 290 287 270 263 262 254
239 236 234 234 233 234 235 237 239 238 242 243 244 246 249 252 259 263 258 258 258 263 267 265 270 274 276 276 282 287 286 285 284 287 285 286 289 285 278 267 259 262 244
236 240 231 226 228 228 230 231 233 234 237 240 242 244 247 252 254 256 260 258 258 261 262 263 269 272 273 278 284 285 284 281 281 283 284 286 285 279 262 252 248 240 206
247 241 236 224 219 220 224 226 228 230 234 237 241 242 245 249 250 252 257 254 256 259 260 264 268 271 274 280 283 283 280 279 280 281 283 287 282 268 246 235 233 226 215
240 235 228 221 213 211 215 219 222 225 229 233 237 240 242 245 250 249 252 253 255 257 261 267 269 271 277 280 280 279 280 280 281 282 282 279 265 249 232 225 225 229 221
233 224 225 215 203 206 208 213 217 221 226 230 235 237 239 245 246 246 248 249 251 256 261 267 270 273 277 276 277 280 278 279 283 284 280 264 239 230 215 214 215 218 217
218 219 191 177 199 196 203 208 213 219 224 228 232 236 237 242 240 241 243 247 250 254 262 265 270 276 273 273 280 277 277 281 281 272 260 246 223 217 217 217 218 223 230
225 186 171 183 191 190 197 203 209 216 221 225 228 232 235 234 234 238 239 242 248 255 261 267 271 270 272 278 277 277 279 279 256 241 240 235 243 227 214 216 215 222 221
214 190 181 196 187 189 195 201 207 213 219 223 226 229 228 227 230 234 234 243 249 254 261 269 268 269 276 277 279 284 278 262 240 237 241 248 244 234 204 209 214 217 205
166 143 157 157 172 185 195 201 205 211 217 220 221 222 222 225 224 230 234 242 244 252 264 267 263 271 276 280 289 285 264 243 245 241 243 245 231 228 202 207 214 214 212
167 162 157 164 172 183 193 199 205 212 214 212 217 218 219 214 222 228 234 235 243 251 263 263 262 271 275 281 278 261 255 252 236 234 236 243 242 202 203 210 214 222 225
178 165 177 168 169 179 193 199 203 205 203 210 210 213 219 212 220 225 227 234 242 248 260 257 262 270 282 276 257 247 235 224 229 230 232 227 207 203 211 213 211 217 226
158 166 168 168 175 183 190 196 200 203 197 197 205 204 203 212 217 220 226 232 241 246 252 253 261 275 279 256 231 221 220 223 216 209 216 204 195 201 205 208 209 217 219
165 171 175 177 182 185 184 187 195 200 202 217 203 203 205 210 213 220 226 233 238 244 245 248 259 264 257 231 213 202 203 208 202 190 184 193 208 213 211 211 214 219 223
169 179 184 183 184 187 190 191 185 170 173 182 195 199 203 208 215 222 228 233 235 233 234 243 249 252 238 222 205 202 204 206 204 206 207 208 213 213 210 213 216 223 230
179 187 185 191 182 180 164 165 166 171 181 188 190 195 202 211 218 222 220 222 221 221 229 240 239 238 232 217 204 206 213 210 208 207 212 218 226 231 225 224 232 233 235
177 186 184 191 193 169 163 165 164 172 181 184 191 200 205 208 211 213 213 213 212 217 232 234 231 229 226 218 205 203 202 202 209 211 219 226 226 224 223 228 238 246 247
161 172 186 186 170 168 163 164 173 176 181 192 201 201 197 203 204 203 210 206 209 224 234 228 231 218 223 218 208 211 210 218 221 217 222 221 223 225 233 235 234 214 208
154 156 152 159 161 165 168 170 174 181 184 180 182 191 198 196 196 202 205 203 218 220 226 230 226 222 218 212 210 209 218 225 222 224 225 234 225 231 237 235 226 228 245
150 150 153 152 157 167 169 174 176 173 177 180 188 183 187 192 194 194 195 204 208 206 203 214 219 212 202 201 204 205 207 207 211 219 231 227 234 245 243 235 237 243 260
145 146 151 158 162 165 168 173 180 183 184 184 183 174 175 184 190 190 190 193 190 192 195 196 187 189 183 184 186 191 196 208 215 219 223 229 239 245 244 247 257 264 273
147 152 153 154 161 170 174 175 173 165 165 170 161 170 182 183 179 180 180 176 172 163 160 160 167 165 170 176 184 192 199 211 225 226 233 228 215 221 260 245 282 285 281
151 152 153 158 160 157 156 155 153 155 159 162 160 155 155 159 164 170 172 178 177 174 169 160 168 176 180 185 187 196 202 210 222 248 222 236 248 249 241 271 278 282 285
Height
5673 5680 5687 5695 5701 5709 5716 5725 5735 5742 5747 5752 5757 5759 5762 5764 5766 5768 5770 5771 5772 5772 5772 5770 5770 5771 5767 5765 5764 5762 5760 5757 5755 5755 5752 5749 5746 5743 5741 5739 5737 5736 5736
5651 5658 5668 5677 5686 5693 5702 5712 5722 5729 5735 5741 5747 5748 5751 5754 5757 5759 5760 5762 5764 5764 5763 5763 5763 5763 5760 5758 5757 5755 5753 5750 5749 5748 5746 5743 5741 5738 5737 5735 5734 5733 5733
5635 5642 5650 5659 5668 5677 5687 5696 5704 5712 5720 5728 5734 5736 5740 5745 5748 5750 5753 5753 5755 5756 5755 5756 5756 5755 5753 5751 5749 5748 5746 5744 5743 5742 5740 5738 5735 5733 5731 5731 5731 5730 5730
5609 5620 5632 5642 5651 5661 5669 5679 5691 5699 5708 5714 5721 5726 5730 5735 5737 5740 5743 5743 5746 5748 5747 5749 5747 5746 5745 5744 5742 5740 5739 5737 5736 5735 5733 5732 5729 5728 5726 5726 5726 5727 5727
5584 5594 5609 5622 5635 5647 5658 5667 5678 5688 5695 5703 5711 5717 5723 5726 5729 5733 5734 5736 5738 5738 5740 5741 5739 5738 5737 5736 5734 5733 5731 5730 5729 5727 5726 5725 5723 5722 5722 5722 5723 5722 5722
5567 5573 5580 5598 5615 5632 5644 5654 5665 5675 5684 5692 5701 5708 5714 5718 5722 5724 5726 5728 5728 5731 5732 5732 5732 5731 5730 5728 5726 5725 5724 5723 5722 5720 5719 5718 5717 5715 5717 5717 5719 5721 5722
5551 5557 5562 5573 5593 5614 5629 5642 5654 5665 5674 5684 5692 5699 5706 5709 5712 5715 5717 5719 5721 5723 5723 5723 5723 5723 5721 5720 5719 5718 5717 5716 5714 5713 5712 5710 5709 5709 5711 5713 5715 5718 5720
5532 5539 5548 5557 5575 5597 5613 5629 5642 5653 5664 5674 5681 5690 5697 5701 5703 5707 5709 5710 5713 5715 5715 5715 5715 5715 5713 5712 5712 5711 5710 5708 5707 5705 5704 5703 5703 5703 5706 5709 5712 5715 5717
5521 5530 5539 5548 5565 5582 5602 5619 5632 5643 5655 5664 5673 5681 5688 5693 5695 5698 5701 5703 5705 5707 5708 5708 5707 5706 5706 5706 5705 5704 5702 5701 5699 5697 5696 5695 5696 5698 5700 5704 5708 5711 5714
5514 5521 5530 5544 5560 5575 5594 5610 5624 5637 5647 5656 5665 5673 5680 5683 5687 5690 5693 5696 5698 5700 5701 5700 5700 5700 5699 5699 5698 5696 5695 5694 5691 5691 5691 5690 5692 5694 5697 5701 5704 5707 5709
5509 5514 5528 5539 5554 5572 5589 5604 5617 5628 5639 5648 5658 5666 5671 5675 5679 5683 5686 5689 5692 5693 5693 5693 5694 5693 5693 5692 5691 5689 5687 5686 5684 5686 5687 5688 5690 5691 5693 5696 5700 5703 5705
5507 5511 5527 5535 5555 5571 5585 5597 5611 5622 5632 5642 5651 5658 5663 5668 5672 5676 5680 5683 5685 5685 5687 5687 5687 5687 5687 5685 5684 5681 5679 5679 5681 5683 5684 5685 5685 5687 5690 5694 5697 5699 5702
5504 5512 5516 5527 5551 5568 5582 5595 5607 5617 5626 5637 5645 5651 5656 5661 5667 5670 5674 5677 5678 5679 5681 5681 5682 5681 5680 5679 5677 5675 5675 5677 5678 5680 5680 5680 5679 5682 5687 5691 5694 5697 5700
5514 5519 5530 5541 5554 5568 5580 5592 5602 5613 5623 5631 5637 5644 5650 5656 5661 5665 5668 5671 5672 5674 5676 5676 5676 5675 5674 5673 5673 5673 5674 5675 5676 5677 5677 5678 5678 5682 5685 5688 5692 5695 5698
5520 5529 5538 5547 5559 5569 5579 5589 5600 5609 5618 5625 5631 5638 5643 5650 5656 5660 5662 5665 5667 5670 5671 5671 5671 5670 5670 5670 5670 5671 5672 5672 5673 5674 5675 5676 5677 5680 5683 5686 5689 5692 5695
5525 5534 5542 5551 5560 5570 5579 5588 5596 5604 5612 5618 5625 5632 5640 5647 5651 5654 5657 5660 5662 5665 5666 5666 5666 5667 5667 5667 5668 5669 5670 5670 5671 5672 5673 5675 5677 5680 5682 5684 5687 5690 5692
5528 5537 5544 5552 5560 5570 5580 5586 5594 5601 5609 5616 5626 5633 5636 5641 5645 5649 5653 5655 5658 5660 5660 5662 5663 5664 5664 5665 5666 5667 5668 5669 5670 5672 5673 5675 5677 5678 5680 5682 5684 5686 5689
5532 5540 5547 5556 5560 5565 5576 5585 5595 5602 5611 5617 5623 5628 5633 5638 5642 5645 5648 5650 5653 5654 5656 5659 5660 5661 5662 5663 5664 5665 5667 5668 5669 5671 5672 5674 5675 5677 5678 5680 5682 5684 5685
5535 5543 5549 5557 5563 5570 5578 5588 5595 5600 5608 5615 5622 5626 5630 5634 5638 5640 5643 5646 5648 5651 5653 5655 5657 5658 5659 5660 5662 5664 5665 5667 5669 5670 5671 5672 5674 5675 5676 5678 5680 5681 5683
5539 5548 5555 5561 5567 5575 5582 5589 5595 5602 5609 5614 5619 5623 5628 5631 5634 5637 5640 5643 5646 5648 5650 5652 5654 5655 5656 5658 5660 5662 5664 5666 5667 5668 5670 5671 5672 5673 5675 5676 5677 5678 5678
5544 5550 5556 5562 5570 5578 5584 5590 5597 5603 5608 5613 5618 5622 5625 5628 5631 5634 5637 5641 5644 5646 5647 5649 5651 5652 5653 5656 5658 5660 5663 5664 5666 5667 5669 5670 5671 5672 5673 5674 5674 5676 5677
5547 5555 5562 5570 5576 5583 5589 5594 5598 5603 5607 5612 5616 5619 5622 5626 5629 5633 5636 5639 5641 5643 5644 5646 5648 5650 5652 5653 5656 5658 5660 5662 5664 5666 5667 5668 5669 5670 5671 5672 5673 5674 5675
5554 5561 5567 5573 5579 5585 5590 5594 5599 5603 5608 5612 5614 5617 5622 5625 5629 5632 5635 5637 5639 5641 5643 5644 5646 5647 5650 5652 5655 5657 5659 5661 5663 5664 5665 5666 5667 5668 5668 5669 5670 5671 5671
5559 5565 5571 5577 5582 5587 5591 5595 5599 5604 5607 5609 5611 5616 5621 5625 5628 5631 5634 5636 5638 5640 5641 5642 5644 5646 5649 5651 5653 5656 5657 5659 5661 5662 5663 5664 5665 5666 5666 5667 5667 5668 5667
5565 5571 5575 5580 5584 5589 5593 5596 5599 5603 5607 5610 5613 5617 5622 5625 5628 5631 5634 5636 5638 5640 5641 5642 5645 5647 5649 5651 5653 5655 5657 5659 5660 5661 5661 5662 5663 5664 5664 5664 5664 5663 5663
5570 5575 5579 5583 5587 5591 5594 5597 5601 5605 5609 5613 5616 5619 5622 5625 5628 5631 5634 5637 5639 5641 5642 5644 5646 5648 5650 5652 5653 5655 5656 5657 5658 5659 5660 5661 5661 5661 5661 5661 5660 5659 5658